Location: Newark
(43.0000°N, 1.6781°W)
Time: 00:26:54
(UTC+00:00)

Vanguard 1 Rocket - Pass Details

Date: 20 April 2021
Orbit: 652 x 4224 km, 34.3° (Epoch: 06 May)

Event Time Altitude Azimuth Distance (km) Brightness Sun altitude
Rises 12:32:54 0° 224° (SW) 4,481 11.3 58.1°
Reaches altitude 10° 12:37:18 10° 209° (SSW) 2,959 10.7 58.0°
Maximum altitude 12:41:48 19° 166° (SSE) 1,917 9.9 57.7°
Drops below altitude 10° 12:45:17 10° 120° (ESE) 2,209 9.6 57.5°
Sets 12:47:57 0° 100° (E) 2,999 10.0 57.4°
